Flag for U.S.A. Weather past 2 weeks in Port Angeles, Washington, U.S.A.

Now
58 °F

Sunny.


Feels Like: 56 °F
Forecast: 50 / 60 °F
Wind: 9 mph from Northwest

Location: William R. Fairchild International Airport

Current Time: May 24, 2015 at 5:25:01 PM

Latest Report: May 24, 2015 at 4:53 PM


Visibility: 10 mi

Pressure: 30.05 "Hg

Humidity: 72%

Dew point: 49 °F

Location of Port AngelesLocation

Historic Weather in Port Angeles — Graph

°F

Port Angeles temperature yesterday

Maximum temperature yesterday: 60 °F (at 2:53 PM)
Minimum temperature yesterday: 52 °F (at 12:53 AM)
Average temperature yesterday: 54 °F

Past Weeks' High & Low Weather Summary

 TemperatureHumidityPressure
High67 °F (May 18, 1:53 PM)100% (May 21, 12:55 AM)30.19 "Hg (May 21, 12:55 AM)
Low48 °F (May 12, 2:53 AM)54% (May 9, 3:53 PM)29.82 "Hg (May 12, 11:53 AM)
Average54 °F82%29.99 "Hg
* Reported May 9 3:53 PM — May 24 3:53 PM, Port Angeles, Weather by CustomWeather, © 2015

Note: Actual official high and low records may vary slightly from our data, if they occured in-between our weather recording intervals... More about our weather records

Advertising

Port Angeles weather history for previous 24 hours

 ConditionsComfort  
Time TempWeatherWind HumidityBarometerVisibility
3:53 PM
Sun, May 24
58 °FPassing clouds.10 mph70%30.07 "Hg10 mi
2:53 PM58 °FOvercast.13 mph72%30.08 "Hg10 mi
1:53 PM57 °FMostly cloudy.10 mph74%30.10 "Hg10 mi
12:53 PM57 °FSunny.9 mph72%30.11 "Hg10 mi
11:53 AM56 °FOvercast.10 mph75%30.12 "Hg10 mi
10:53 AM55 °FOvercast.8 mph77%30.13 "Hg10 mi
9:53 AM54 °FOvercast.6 mph77%30.14 "Hg10 mi
8:53 AM53 °FOvercast.7 mph80%30.15 "Hg10 mi
7:53 AM52 °FOvercast.8 mph83%30.15 "Hg10 mi
6:53 AM51 °FOvercast.8 mph86%30.16 "Hg10 mi
5:53 AM50 °FLow clouds.10 mph89%30.15 "Hg10 mi
4:53 AM50 °FFog.6 mph89%30.16 "Hg5 mi
3:53 AM51 °FOvercast.5 mph86%30.16 "Hg10 mi
2:53 AM51 °FOvercast.3 mph86%30.17 "Hg10 mi
2:04 AM51 °FOvercast.No wind86%30.17 "Hg10 mi
1:53 AM51 °FLow clouds.3 mph86%30.17 "Hg10 mi
12:53 AM51 °FOvercast.6 mph89%30.18 "Hg10 mi
11:53 PM
Sat, May 23
52 °FOvercast.9 mph86%30.17 "Hg10 mi
10:53 PM52 °FLow clouds.12 mph86%30.17 "Hg10 mi
9:53 PM52 °FLow clouds.7 mph86%30.17 "Hg10 mi
8:53 PM52 °FLow clouds.5 mph86%30.17 "Hg10 mi
7:53 PM53 °FLow clouds.10 mph86%30.17 "Hg10 mi
6:53 PM55 °FOvercast.8 mph80%30.16 "Hg10 mi
6:03 PM56 °FPartly sunny.7 mph81%30.16 "Hg10 mi
Weather by CustomWeather, © 2015

See weather overviewHow to use our weather pages